Regional Weather Roundup
Issued by NWS

Home | Current Version | Previous Version | Text Only | Print | Product List | Glossary On
Versions: 1 2 3 4 5 6 7 8 9 10 11 12 13 14 15 16 17 18 19 20 21 22 23 24 25 26 27 28 29 30 31 32 33 34 35 36 37 38 39 40 41 42 43 44 45 46 47 48 49 50
000
ASUS43 KMKX 300321
RWRWI

WISCONSIN REGIONAL WEATHER ROUNDUP
NATIONAL WEATHER SERVICE MILWAUKEE/SULLIVAN WI
1000 PM CDT FRI APR 29 2016

NOTE: "FAIR" INDICATES FEW OR NO CLOUDS BELOW 12,000 FEET WITH NO
SIGNIFICANT WEATHER AND/OR OBSTRUCTIONS TO VISIBILITY.

WIZ001-002-006>008-014>016-023>028-300400-
NORTHWEST WISCONSIN

CITY           SKY/WX    TMP DP  RH WIND       PRES   REMARKS
SUPERIOR ARPT  CLEAR     38  32  79 E7        30.23S WCI  32
ASHLAND        CLEAR     34  31  88 NE5       30.23R WCI  30
HAYWARD        CLEAR     41  29  62 NE6       30.18S
SIREN          CLEAR     49  30  48 NE8       30.17R
CUMBERLAND     CLEAR     45  32  61 NE8       30.16R
RICE LAKE      CLEAR     48  32  53 NE9       30.16R
CHETEK         CLOUDY    50  33  50 NE6       30.15R
LADYSMITH      CLEAR     47  31  54 N9        30.17R
EAU CLAIRE     CLEAR     46  38  73 CALM      30.12R
MENOMONIE      CLEAR     46  37  70 CALM      30.13S
NEW RICHMOND   PTCLDY    48  40  74 NE7       30.13S
OSCEOLA        CLEAR     52  33  49 NE8       30.16R
$$

WIZ003>005-009-010-017-018-300400-
NORTH CENTRAL WISCONSIN

CITY           SKY/WX    TMP DP  RH WIND       PRES   REMARKS
MANITOWISH WTR CLEAR     42  30  61 N6        30.17R
ARBOR VITAE    CLEAR     45  30  56 NE7       30.16R
WOODRUFF       CLEAR     45  30  56 NE7       30.16R
RHINELANDER    CLEAR     44  32  62 NE7       30.15R
EAGLE RIVER    CLEAR     45  26  48 NE9G17    30.15S
LAND O LAKES   MOCLDY    46  28  50 NE8       30.18R
PHILLIPS       PTCLDY    44  31  60 N9        30.15R
TOMAHAWK       CLEAR     39  36  87 CALM      30.14S
MEDFORD        CLEAR     40  39  95 CALM      30.13R
MERRILL        CLEAR     41  37  84 SE3       30.15R
$$

WIZ029-030-035-036-043>047-300400-
CENTRAL WISCONSIN

CITY           SKY/WX    TMP DP  RH WIND       PRES   REMARKS
WAUSAU         CLEAR     48  34  58 E6        30.13R
MOSINEE        CLEAR     46  34  61 E5        30.15R
MARSHFIELD     MOCLDY    48  36  63 CALM      30.12S
STEVENS POINT  CLOUDY    46  35  66 E3        30.14F
WAUPACA        CLEAR     48  34  57 NE3       30.15S
WAUTOMA        PTCLDY    43  36  76 CALM      30.14
WISC RAPIDS    CLOUDY    49  34  56 E7        30.14S
CAMP DOUGLAS   PTCLDY    41  41 100 S2        30.12R
$$

WIZ011>013-019>022-031-037>040-048>050-300400-
NORTHEAST WISCONSIN

CITY           SKY/WX    TMP DP  RH WIND       PRES   REMARKS
ANTIGO         CLEAR     42  32  68 CALM      30.15S
SHAWANO        CLOUDY    47  32  55 CALM      30.16R
OCONTO         CLEAR     37  33  83 CALM      30.16R
STURGEON BAY   CLEAR     41  30  65 N3        30.18S
GREEN BAY      CLEAR     45  34  65 SE3       30.16R
MANITOWOC      CLEAR     41  31  67 N3        30.17S
APPLETON       PTCLDY    48  28  46 E3        30.14R
CLINTONVILLE   CLOUDY    43  32  65 CALM      30.15S
OSHKOSH        CLEAR     45  31  58 E6        30.14R
$$

WIZ032>034-041-042-053>061-300400-
SOUTHWEST WISCONSIN

CITY           SKY/WX    TMP DP  RH WIND       PRES   REMARKS
LA CROSSE      PTCLDY    48  40  73 CALM      30.11S
SPARTA         CLOUDY    44  42  91 CALM      30.13R
VIROQUA        PTCLDY    44  38  78 E3        30.11S
BOSCOBEL       CLOUDY    43  39  86 CALM      30.11S
PRAIRIE DU CHI CLOUDY    47  39  73 CALM      30.10F
PLATTEVILLE    CLOUDY    44  40  88 E7        30.10F
$$

WIZ056-057-062-063-064-067-068-300400-
SOUTH CENTRAL WISCONSIN

CITY           SKY/WX    TMP DP  RH WIND       PRES   REMARKS
REEDSBURG      CLOUDY    43  39  85 CALM      30.12R
BARABOO/DELLS  CLOUDY    45  35  66 E3        30.12R
LONE ROCK      CLOUDY    43  39  86 CALM      30.12R
MINERAL POINT  CLOUDY    45  41  87 SE3       30.10F
MADISON        PTCLDY    44  34  67 E8        30.13R
MIDDLETON      PTCLDY    46  41  82 E3        30.13R
WATERTOWN      CLEAR     41  35  80 E5        30.14R
MONROE         CLOUDY    43  37  81 E5        30.11R
JANESVILLE     NOT AVBL
$$

WIZ051-052-058>065-066-070>072-300400-
SOUTHEAST WISCONSIN

CITY           SKY/WX    TMP DP  RH WIND       PRES   REMARKS
MILWAUKEE      MOCLDY    40  34  79 CALM      30.15S
WAUKESHA       CLEAR     37  32  81 CALM      30.16R
MILWAUKEE/TIMM CLEAR     41  30  65 CALM      30.16R
RACINE         CLOUDY    42  34  73 NE6       30.17S
BURLINGTON     CLOUDY    41  35  80 E8        30.15R
KENOSHA        CLOUDY    42  35  76 E8        30.15S
FOND DU LAC    CLEAR     43  30  60 E6        30.14R
SHEBOYGAN      CLEAR     39  28  64 CALM      30.15S
WEST BEND      CLEAR     39  32  75 CALM      30.15S
JUNEAU         CLEAR     42  34  74 E6        30.15S
$$

LSZ147-162-300400-
LAKE SUPERIOR

STATION/POSITION TIME  TEMP    WIND        PRES    WAVE
                       AIR SEA DIR/SP/G            HT/PER
                 (UTC) (F)     (DEG/KT/KT) (MB)    (FT/S)
W MID LAKE BUOY  0250   38 37  350/  6/  6 1024.7S   1
DEVILS ISLAND    0300   39      20/  9/ 10 1024.5F
SAXON HARBOR     0240   38      10/  5/  6 1023.0S
$$

LMZ867-665-643>646-300400-
LAKE MICHIGAN

STATION/POSITION TIME  TEMP    WIND        PRES    WAVE
                       AIR SEA DIR/SP/G            HT/PER
                 (UTC) (F)     (DEG/KT/KT) (MB)    (FT/S)
CHAMBERS ISLAND  0240   40      CALM  /  2 1021.7S
N MID LAKE BUOY  0250   43 38  100/  4/  8 1021.7F   0
NORTHPORT PIER   0200   42     310/  4/  8 1021.3S
ALGOMA LAKESHORE 0200           10/  7/  8   N/A
KEWAUNEE LAKESHO 0200   44                 1020.6F
SHEBOYGAN LAKESH 0300   43      30/  2/  3 1021.9R
PORT WASHINGTON  0200   43      10/  2/  4 1022.0R
S MID LAKE BUOY  0250   41 40   60/ 10/ 10 1020.7F   1/ 3
KENOSHA   LAKESH 0300   42      40/  7/  9 1021.0S
$$

TC  - TEMPERATURE IN CELSIUS
VSB - VISIBILITY IN STATUTE MILES
WCI - WIND CHILL INDEX
HX  - HEAT INDEX





USA.gov is the U.S. government's official web portal to all federal, state and local government web resources and services.